Leesburg, FL

12:28 PM EST on December 05, 2019 (GMT -0500)
Leesburg Regional

Weather History for KLEE - October, 2019

Change the Weather History Date:

Tuesday, October 22, 2019

  Actual Average Record
Temperature  
Mean Temperature 82 °F -  
Max Temperature 91 °F 82 °F 91 °F (2006)
Min Temperature 75 °F 61 °F 39 °F (1989)
Cooling Degree Days 18    
Growing Degree Days 32 (Base 50)    
Moisture  
Dew Point 74 °F    
Average Humidity 83    
Maximum Humidity 96    
Minimum Humidity 54    
Precipitation  
Precipitation 0.00 in - - ()
Sea Level Pressure  
Sea Level Pressure 29.99 in    
Wind  
Wind Speed 6 mph (SW)    
Max Wind Speed 15 mph    
Max Gust Speed 23 mph    
Visibility 8 miles    
Events      
Averages and records for this station are not official NWS values.
T = Trace of Precipitation, MM = Missing Value Source: NWS Daily Summary

Daily Weather History Graph

Daily Weather History Graph

Search for Another Location

Airport or City:

Astronomy

Oct. 22, 2019 Rise Set
Actual Time 7:32 AM EDT 6:50 PM EDT
Civil Twilight 7:08 AM EDT 7:14 PM EDT
Nautical Twilight 6:40 AM EDT 7:42 PM EDT
Astronomical Twilight 6:13 AM EDT 8:09 PM EDT
Moon 1:20 AM EDT (10/22) 3:22 PM EDT (10/22)
Length of Visible Light 12h 06m
Length of Day
11h 18m
Last Quarter, 37% of the Moon is Illuminated
Oct 22
Last Quarter
Oct 27
New
Nov 4
First Quarter
Nov 12
Full
Nov 19
Last Quarter

Hourly Weather History & Observations

Time (EDT) Temp. Heat Index Dew Point Humidity Pressure Visibility Wind Dir Wind Speed Gust Speed Precip Events Conditions
12:53 AM 78.1 °F - 75.9 °F 93% 30.01 in 10.0 mi South 4.6 mph - N/A   Overcast
1:53 AM 77.0 °F - 75.0 °F 94% 30.01 in 9.0 mi South 3.5 mph - N/A   Scattered Clouds
2:53 AM 77.0 °F - 75.0 °F 94% 30.00 in 7.0 mi South 5.8 mph - N/A   Clear
3:39 AM 77.0 °F - 75.0 °F 94% 29.99 in 8.0 mi South 8.1 mph - N/A   Partly Cloudy
4:16 AM 77.0 °F - 75.0 °F 94% 29.99 in 7.0 mi South 4.6 mph - N/A   Mostly Cloudy
4:34 AM 77.0 °F - 75.0 °F 94% 29.99 in 6.0 mi SSW 4.6 mph - N/A   Overcast
5:33 AM 77.0 °F - 75.0 °F 94% 30.00 in 2.0 mi SW 5.8 mph - N/A   Overcast
5:43 AM 77.0 °F - 75.9 °F 96% 30.01 in 1.5 mi SW 6.9 mph - N/A   Overcast
5:53 AM 77.0 °F - 75.9 °F 96% 30.01 in 1.2 mi SW 6.9 mph - N/A   Overcast
6:11 AM 77.0 °F - 75.9 °F 96% 30.01 in 3.0 mi SW 4.6 mph - N/A   Overcast
6:53 AM 77.0 °F - 75.0 °F 94% 30.01 in 6.0 mi SSW 5.8 mph - N/A   Overcast
7:53 AM 77.0 °F - 75.0 °F 94% 30.01 in 5.0 mi SSW 6.9 mph - N/A   Overcast
8:53 AM 78.1 °F - 75.9 °F 93% 30.01 in 5.0 mi SSW 5.8 mph - N/A   Overcast
9:16 AM 78.1 °F - 75.9 °F 93% 30.01 in 7.0 mi South 9.2 mph - N/A   Overcast
9:53 AM 79.0 °F - 75.9 °F 90% 30.03 in 7.0 mi SSW 6.9 mph - N/A   Overcast
10:48 AM 82.4 °F 89.5 °F 75.2 °F 79% 30.02 in 10.0 mi SW 6.9 mph - N/A   Mostly Cloudy
11:53 AM 86.0 °F 95.1 °F 75.0 °F 70% 30.00 in 10.0 mi South 9.2 mph - N/A   Clear
12:53 PM 89.1 °F 99.1 °F 75.0 °F 63% 29.97 in 10.0 mi South 10.4 mph - N/A   Scattered Clouds
1:53 PM 90.0 °F 100.2 °F 75.0 °F 61% 29.95 in 10.0 mi SW 9.2 mph - N/A   Partly Cloudy
2:53 PM 89.1 °F 98.0 °F 73.9 °F 61% 29.93 in 10.0 mi West 9.2 mph 20.7 mph N/A   Mostly Cloudy
3:53 PM 90.0 °F 96.4 °F 71.1 °F 54% 29.94 in 10.0 mi WSW 15.0 mph 23.0 mph N/A   Partly Cloudy
4:53 PM 89.1 °F 96.0 °F 72.0 °F 57% 29.94 in 10.0 mi West 12.7 mph 21.9 mph N/A   Partly Cloudy
5:53 PM 86.0 °F 92.2 °F 72.0 °F 63% 29.95 in 10.0 mi West 12.7 mph - N/A   Clear
6:53 PM 81.0 °F 84.9 °F 71.1 °F 72% 29.98 in 10.0 mi WNW 8.1 mph - N/A   Partly Cloudy
7:53 PM 79.0 °F - 72.0 °F 79% 29.98 in 10.0 mi West 3.5 mph - N/A   Clear
8:53 PM 79.0 °F - 72.0 °F 79% 30.00 in 10.0 mi Calm Calm - N/A   Clear
9:53 PM 75.9 °F - 72.0 °F 87% 30.01 in 10.0 mi Calm Calm - N/A   Clear
10:53 PM 75.9 °F - 72.0 °F 87% 30.03 in 10.0 mi West 4.6 mph - N/A   Clear
11:53 PM 75.9 °F - 73.0 °F 91% 30.03 in 10.0 mi WNW 5.8 mph - N/A   Clear